STARLINK-2083 (47676 NORAD) Tracking and Keplerian Element Data

This shows tracking and keplerian element data for the satellite.

Feedback or suggestion? Click here.




ElementValue
Catalog47676
NameSTARLINK-2083
Epoch Orbit235
Epoch Day57.16667824
Epoch Year2021
RAAN52.0207
Inclination53.0494
Eccentricity5.47E-05
Argument of Perigee75.1137
Mean Anonmoly185.4445
Mean Motion15.8617025
Decay Rate0.00059892
L11 47676U 21012BJ 21057.16667824 .00059892 00000-0 23744-3 0 9997
L22 47676 53.0494 52.0207 0000547 75.1137 185.4445 15.86170250 2359

Live tracking and technical data element details for STARLINK-2083 (NORAD 47676). STARLINK-2083 can be tracked NOW for your location showing map with azimuth and elevation plus other details from your city location.

Track the satellite on the map from your city or location and see movement details for azimuth, elevation, latitude, longitude, range, height, and movement on the map or in text.







IsCatalogInMostPopularTable: catalog: 47676, numindb: 1
Update: records affected: 1



GetName: 47676 STARLINK-2083

Hit Count: updated at: Fri, 26 Feb 2021 10:36:29 GMT